Location: Fort Wayne
(41.1310°N, 85.1290°W)
Time: 16:58:02
(UTC-04:00)

SR - Visible Passes

Search period start: 29 August 2015 00:00
Search period end: 08 September 2015 00:00
Orbit: 579 x 881 km, 66.7° (Epoch: 28 August)

Date Brightness Start Highest point End Pass type
(mag) Time Alt. Az. Time Alt. Az. Time Alt. Az.
29 Aug ? 21:00:12 10° NW 21:05:34 49° WSW 21:11:10 10° S visible
30 Aug ? 21:55:27 10° WNW 21:58:15 13° WSW 22:00:45 10° SW visible
31 Aug ? 21:04:48 10° NW 21:09:28 26° WSW 21:14:11 10° SSW visible
02 Sep ? 21:10:20 10° WNW 21:13:17 14° WSW 21:15:57 10° SW visible
